Zurück zum Katalog

STARLINK-35075

AktivKommunikationVLEO
NORAD 65702·PAYLOAD·🇺🇸 United States

Gestartet Sep 21, 2025 von Cape Canaveral Space Force Station

Loading…

Nächste Überflüge (nächste 24 Stunden)

TLE

AktuellSource: CelesTrak SupGP

Epoche: Sep 14, 2026, 21:00 UTC

1 65702C 25212AC  26257.87548611  .00010858  00000+0  34905-3 0  2576
2 65702  53.1568 186.0589 0001200  93.5690 167.7554 15.31708243    12

Verfolge STARLINK-35075 in Echtzeit mit AllMySat

Download on the App Store